• In Deutschland
  • Länderverzeichnis
  • Für 7 Tage
  • Wassertemperatur
  • Satellitenkarten
  • Wetterkarte
  • Widgets
  • user-avatar
    Anmelden

    Stündliche Wetter Darwin

    Heute, 25 Juli, Dienstag

    Zeit Temperatur Niederschläge Wind Luftdruck Luftfeuchtigkeit
    00:00 +25°C° 0 mm 2 m/S 759 mmHg 60%
    01:00 +25°C° 0 mm 2 m/S 759 mmHg 57%
    02:00 +25°C° 0 mm 2 m/S 759 mmHg 55%
    03:00 +24°C° 0 mm 3 m/S 759 mmHg 53%
    04:00 +24°C° 0 mm 3 m/S 759 mmHg 54%
    05:00 +24°C° 0 mm 3 m/S 759 mmHg 55%
    06:00 +22°C° 0 mm 4 m/S 759 mmHg 55%
    07:00 +25°C° 0 mm 5 m/S 760 mmHg 52%
    08:00 +27°C° 0 mm 5 m/S 760 mmHg 48%
    09:00 +29°C° 0 mm 6 m/S 760 mmHg 44%
    10:00 +32°C° 0 mm 6 m/S 760 mmHg 40%
    11:00 +34°C° 0 mm 6 m/S 759 mmHg 35%
    12:00 +38°C° 0 mm 6 m/S 759 mmHg 31%
    13:00 +38°C° 0 mm 6 m/S 758 mmHg 30%
    14:00 +39°C° 0 mm 6 m/S 757 mmHg 30%
    15:00 +39°C° 0 mm 6 m/S 757 mmHg 30%
    16:00 +36°C° 0 mm 6 m/S 757 mmHg 36%
    17:00 +35°C° 0 mm 5 m/S 757 mmHg 43%
    18:00 +33°C° 0 mm 5 m/S 757 mmHg 49%
    19:00 +32°C° 0 mm 5 m/S 758 mmHg 57%
    20:00 +29°C° 0 mm 5 m/S 758 mmHg 65%
    21:00 +28°C° 0 mm 5 m/S 759 mmHg 73%
    22:00 +28°C° 0 mm 5 m/S 759 mmHg 74%
    23:00 +28°C° 0 mm 5 m/S 759 mmHg 75%

    Morgen, 26 Juli, Mittwoch

    Zeit Temperatur Niederschläge Wind Luftdruck Luftfeuchtigkeit
    00:00 +28°C° 0 mm 4 m/S 760 mmHg 76%
    01:00 +27°C° 0 mm 4 m/S 759 mmHg 77%
    02:00 +27°C° 0 mm 4 m/S 759 mmHg 77%
    03:00 +27°C° 0 mm 4 m/S 759 mmHg 77%
    04:00 +26°C° 0 mm 4 m/S 759 mmHg 78%
    05:00 +25°C° 0 mm 4 m/S 759 mmHg 79%
    06:00 +25°C° 0 mm 4 m/S 759 mmHg 81%
    07:00 +26°C° 0 mm 5 m/S 759 mmHg 72%
    08:00 +28°C° 0 mm 5 m/S 760 mmHg 63%
    09:00 +30°C° 0 mm 6 m/S 760 mmHg 54%
    10:00 +32°C° 0 mm 6 m/S 760 mmHg 47%
    11:00 +34°C° 0 mm 6 m/S 760 mmHg 39%
    12:00 +36°C° 0 mm 6 m/S 759 mmHg 32%
    13:00 +38°C° 0 mm 6 m/S 759 mmHg 31%
    14:00 +37°C° 0 mm 5 m/S 758 mmHg 30%
    15:00 +39°C° 0 mm 5 m/S 757 mmHg 29%
    16:00 +36°C° 0 mm 5 m/S 757 mmHg 33%
    17:00 +35°C° 0 mm 4 m/S 758 mmHg 37%
    18:00 +34°C° 0 mm 4 m/S 758 mmHg 41%
    19:00 +32°C° 0 mm 4 m/S 758 mmHg 48%
    20:00 +30°C° 0 mm 4 m/S 759 mmHg 55%
    21:00 +28°C° 0 mm 4 m/S 760 mmHg 62%
    22:00 +28°C° 0 mm 4 m/S 760 mmHg 67%
    23:00 +27°C° 0 mm 4 m/S 760 mmHg 72%

    übermorgen, 27 Juli, Donnerstag

    Zeit Temperatur Niederschläge Wind Luftdruck Luftfeuchtigkeit
    00:00 +27°C° 0 mm 4 m/S 760 mmHg 78%
    01:00 +26°C° 0 mm 4 m/S 760 mmHg 77%
    02:00 +26°C° 0 mm 4 m/S 759 mmHg 76%
    03:00 +25°C° 0 mm 4 m/S 759 mmHg 75%
    04:00 +25°C° 0 mm 4 m/S 760 mmHg 74%
    05:00 +23°C° 0 mm 5 m/S 760 mmHg 72%
    06:00 +23°C° 0 mm 5 m/S 760 mmHg 71%
    07:00 +25°C° 0 mm 5 m/S 760 mmHg 65%
    08:00 +27°C° 0 mm 6 m/S 761 mmHg 59%
    09:00 +28°C° 0 mm 6 m/S 761 mmHg 53%
    10:00 +30°C° 0 mm 6 m/S 761 mmHg 45%
    11:00 +33°C° 0 mm 6 m/S 760 mmHg 36%
    12:00 +35°C° 0 mm 6 m/S 760 mmHg 28%
    13:00 +36°C° 0 mm 6 m/S 759 mmHg 28%
    14:00 +37°C° 0 mm 5 m/S 758 mmHg 28%
    15:00 +37°C° 0 mm 5 m/S 758 mmHg 27%
    16:00 +36°C° 0 mm 5 m/S 758 mmHg 32%
    17:00 +34°C° 0 mm 4 m/S 758 mmHg 36%
    18:00 +33°C° 0 mm 4 m/S 758 mmHg 41%
    19:00 +31°C° 0 mm 3 m/S 759 mmHg 46%
    20:00 +29°C° 0 mm 3 m/S 759 mmHg 52%
    21:00 +28°C° 0 mm 2 m/S 760 mmHg 57%
    22:00 +27°C° 0 mm 3 m/S 760 mmHg 58%
    23:00 +27°C° 0 mm 3 m/S 760 mmHg 59%

    28 Juli, Freitag

    Zeit Temperatur Niederschläge Wind Luftdruck Luftfeuchtigkeit
    00:00 +26°C° 0 mm 3 m/S 760 mmHg 60%
    01:00 +26°C° 0 mm 4 m/S 760 mmHg 59%
    02:00 +26°C° 0 mm 4 m/S 760 mmHg 58%
    03:00 +26°C° 0 mm 5 m/S 760 mmHg 57%
    04:00 +25°C° 0 mm 5 m/S 760 mmHg 65%
    05:00 +23°C° 0 mm 5 m/S 760 mmHg 72%
    06:00 +23°C° 0 mm 5 m/S 761 mmHg 79%
    07:00 +24°C° 0 mm 6 m/S 761 mmHg 69%
    08:00 +27°C° 0 mm 6 m/S 761 mmHg 59%
    09:00 +29°C° 0 mm 6 m/S 762 mmHg 49%
    10:00 +32°C° 0 mm 6 m/S 761 mmHg 41%
    11:00 +34°C° 0 mm 6 m/S 761 mmHg 33%
    12:00 +36°C° 0 mm 5 m/S 760 mmHg 24%
    13:00 +36°C° 0 mm 5 m/S 760 mmHg 24%
    14:00 +37°C° 0 mm 5 m/S 759 mmHg 24%
    15:00 +37°C° 0 mm 5 m/S 758 mmHg 23%
    16:00 +36°C° 0 mm 5 m/S 758 mmHg 29%
    17:00 +34°C° 0 mm 4 m/S 758 mmHg 34%
    18:00 +32°C° 0 mm 4 m/S 759 mmHg 39%
    19:00 +30°C° 0 mm 4 m/S 759 mmHg 47%
    20:00 +28°C° 0 mm 4 m/S 760 mmHg 55%
    21:00 +27°C° 0 mm 3 m/S 760 mmHg 63%
    22:00 +27°C° 0 mm 3 m/S 761 mmHg 66%
    23:00 +26°C° 0 mm 3 m/S 761 mmHg 69%

    29 Juli, Samstag

    Zeit Temperatur Niederschläge Wind Luftdruck Luftfeuchtigkeit
    00:00 +26°C° 0 mm 3 m/S 761 mmHg 71%
    01:00 +26°C° 0,1 mm 3 m/S 761 mmHg 70%
    02:00 +26°C° 0,1 mm 3 m/S 761 mmHg 69%
    03:00 +26°C° 0,1 mm 3 m/S 760 mmHg 68%
    04:00 +26°C° 0 mm 4 m/S 761 mmHg 69%
    05:00 +25°C° 0 mm 4 m/S 761 mmHg 69%
    06:00 +25°C° 0 mm 5 m/S 761 mmHg 69%
    07:00 +26°C° 0 mm 5 m/S 761 mmHg 65%
    08:00 +28°C° 0 mm 5 m/S 762 mmHg 60%
    09:00 +29°C° 0 mm 5 m/S 762 mmHg 55%
    10:00 +32°C° 0 mm 4 m/S 761 mmHg 47%
    11:00 +34°C° 0 mm 4 m/S 761 mmHg 39%
    12:00 +36°C° 0 mm 3 m/S 760 mmHg 31%
    13:00 +37°C° 0 mm 4 m/S 759 mmHg 29%
    14:00 +37°C° 0 mm 4 m/S 759 mmHg 26%
    15:00 +38°C° 0 mm 4 m/S 758 mmHg 24%
    16:00 +36°C° 0 mm 3 m/S 758 mmHg 30%
    17:00 +34°C° 0 mm 3 m/S 758 mmHg 36%
    18:00 +31°C° 0 mm 3 m/S 759 mmHg 42%
    19:00 +30°C° 0 mm 3 m/S 759 mmHg 53%
    20:00 +28°C° 0 mm 3 m/S 760 mmHg 63%
    21:00 +27°C° 0 mm 3 m/S 760 mmHg 73%
    22:00 +26°C° 0 mm 2 m/S 760 mmHg 76%
    23:00 +26°C° 0 mm 1 m/S 760 mmHg 79%

    30 Juli, Sonntag

    Zeit Temperatur Niederschläge Wind Luftdruck Luftfeuchtigkeit
    00:00 +26°C° 0 mm 1 m/S 760 mmHg 82%
    01:00 +25°C° 0,1 mm 1 m/S 760 mmHg 82%
    02:00 +25°C° 0,1 mm 1 m/S 760 mmHg 82%
    03:00 +25°C° 0,1 mm 1 m/S 759 mmHg 82%
    04:00 +25°C° 0,2 mm 2 m/S 760 mmHg 83%
    05:00 +25°C° 0,2 mm 2 m/S 760 mmHg 83%
    06:00 +25°C° 0,2 mm 3 m/S 760 mmHg 84%
    07:00 +27°C° 0,1 mm 4 m/S 760 mmHg 75%
    08:00 +28°C° 0,1 mm 4 m/S 761 mmHg 66%
    09:00 +30°C° 0,1 mm 5 m/S 761 mmHg 58%
    10:00 +33°C° 0 mm 5 m/S 760 mmHg 48%
    11:00 +35°C° 0 mm 4 m/S 760 mmHg 39%
    12:00 +37°C° 0 mm 4 m/S 759 mmHg 30%
    13:00 +38°C° 0 mm 4 m/S 759 mmHg 28%
    14:00 +38°C° 0 mm 4 m/S 758 mmHg 27%
    15:00 +40°C° 0 mm 4 m/S 757 mmHg 25%
    16:00 +37°C° 0 mm 3 m/S 758 mmHg 29%
    17:00 +36°C° 0 mm 3 m/S 758 mmHg 32%
    18:00 +34°C° 0 mm 2 m/S 758 mmHg 36%
    19:00 +31°C° 0 mm 2 m/S 759 mmHg 42%
    20:00 +30°C° 0 mm 2 m/S 759 mmHg 49%
    21:00 +28°C° 0 mm 2 m/S 760 mmHg 56%
    22:00 +27°C° 0 mm 2 m/S 760 mmHg 62%
    23:00 +27°C° 0 mm 2 m/S 760 mmHg 69%
    Mehr zeigen